Location: Rayville (historical)
(39.9992°N, 99.6815°W)
Time: 18:38:56
(UTC+00:00)

Cosmos 2263 - Pass Details

Date: 18 February 2020
Orbit: 832 x 865 km, 70.9° (Epoch: 28 March)

Event Time Altitude Azimuth Distance (km) Brightness Sun altitude
Rises 02:39:26 0° 206° (SSW) 3,430 7.6 -27.9°
Reaches altitude 10° 02:41:54 10° 208° (SSW) 2,498 6.8 -28.4°
Maximum altitude 02:47:39 76° 294° (WNW) 894 4.3 -29.5°
Enters shadow 02:48:01 73° 330° (NNW) 906 4.3 -29.6°
